This is the latest recevied weather packets stored in our database for station/object HB9KBJ-8. If no packets are shown the sender has not sent any weather packets the latest 10 day(s).
| Time | Temp. | Humidity | Pressure | Rain* | Wind** | Luminosity | Snow |
|---|---|---|---|---|---|---|---|
| 1778067133 | 11.11° C | 87% | 1008.1 hPa | 0.25 mm | - | 58 W/m² | - |
| 1778066850 | 11.11° C | 87% | 1008.1 hPa | 0 mm | - | 69 W/m² | - |
| 1778066545 | 11.67° C | 86% | 1007.9 hPa | 0 mm | - | 62 W/m² | - |
| 1778066246 | 11.67° C | 86% | 1007.7 hPa | 0 mm | - | 54 W/m² | - |
| 1778065946 | 12.22° C | 86% | 1007.6 hPa | 0 mm | - | 60 W/m² | - |
| 1778065640 | 12.22° C | 85% | 1007.5 hPa | 0 mm | - | 84 W/m² | - |
| 1778065335 | 12.22° C | 85% | 1007.5 hPa | 0 mm | - | 44 W/m² | - |
| 1778065052 | 12.78° C | 85% | 1007.4 hPa | 0 mm | - | 88 W/m² | - |
| 1778064743 | 12.78° C | 85% | 1007.4 hPa | 0.25 mm | - | 142 W/m² | - |
| 1778064439 | 12.78° C | 85% | 1007.4 hPa | 0.25 mm | - | 146 W/m² | - |
| 1778064152 | 12.78° C | 84% | 1007.4 hPa | 0.25 mm | - | 125 W/m² | - |
| 1778063848 | 12.78° C | 84% | 1007.4 hPa | 0.25 mm | - | 155 W/m² | - |
| 1778063540 | 12.78° C | 85% | 1007.3 hPa | 0.25 mm | - | 185 W/m² | - |
| 1778063238 | 12.78° C | 85% | 1007.3 hPa | 0.25 mm | - | 206 W/m² | - |
| 1778062940 | 12.78° C | 85% | 1007.3 hPa | 0.25 mm | - | 234 W/m² | - |
| 1778062644 | 12.78° C | 85% | 1007.3 hPa | 0.25 mm | - | 227 W/m² | - |
| 1778062340 | 12.78° C | 85% | 1007.2 hPa | 0.51 mm | - | 341 W/m² | - |
| 1778062052 | 12.78° C | 86% | 1007.3 hPa | 0.51 mm | - | 346 W/m² | - |
| 1778061743 | 12.78° C | 86% | 1007.2 hPa | 0.51 mm | - | 336 W/m² | - |
| 1778061438 | 12.22° C | 86% | 1007.1 hPa | 0.51 mm | - | 274 W/m² | - |
| 1778061141 | 12.78° C | 87% | 1007 hPa | 0.25 mm | - | 302 W/m² | - |
| 1778060842 | 12.22° C | 86% | 1007.1 hPa | 0.25 mm | - | 425 W/m² | - |
| 1778060545 | 12.22° C | 87% | 1007.1 hPa | 0.25 mm | - | 371 W/m² | - |
| 1778060244 | 12.22° C | 87% | 1007.2 hPa | 0.25 mm | - | 431 W/m² | - |
| 1778059950 | 12.22° C | 86% | 1007.2 hPa | 0.25 mm | - | 352 W/m² | - |
* Rain latest hour (hover to see other rain measurements)
** Current wind speed in m/s (hover to see current wind gust speed)